Location: Tel Aviv
(32.0670°N, 34.7670°E)
Time: 15:50:43
(UTC+03:00)

ARIANE 6 FM1 Upper Stage - Visible Passes

Search period start: 16 June 2025 00:00
Search period end: 26 June 2025 00:00
Orbit: 531 x 610 km, 62.0° (Epoch: 15 June)

Date Brightness Start Highest point End Pass type
(mag) Time Alt. Az. Time Alt. Az. Time Alt. Az.
16 Jun 3.6 21:01:43 10° NNW 21:05:32 34° NE 21:07:36 22° ESE visible
16 Jun 5.0 22:41:36 10° WNW 22:43:43 17° W 22:43:43 17° W visible
17 Jun 2.9 21:03:09 10° NNW 21:07:15 56° ENE 21:09:27 26° SE visible
17 Jun 5.5 22:45:20 10° WSW 22:45:35 10° WSW 22:45:35 10° WSW visible
18 Jun 2.6 21:04:44 10° NNW 21:08:55 86° WSW 21:11:22 25° SSE visible
19 Jun 3.3 21:06:29 10° NW 21:10:32 50° WSW 21:13:21 19° S visible
20 Jun 4.2 21:08:26 10° NW 21:12:06 30° WSW 21:15:25 12° S visible
21 Jun 5.0 21:10:42 10° WNW 21:13:38 19° WSW 21:16:37 10° SSW visible
22 Jun 5.5 21:13:53 10° W 21:15:08 11° WSW 21:16:23 10° SW visible
